Location: Mercogliano
(40.9167°N, 14.7333°E)
Time: 08:13:24
(UTC+00:00)

CZ-2C R/B - Pass Details

Date: 20 January 2021
Orbit: 785 x 870 km, 98.2° (Epoch: 08 March)

Event Time Altitude Azimuth Distance (km) Brightness Sun altitude
Rises 05:21:41 0° 165° (SSE) 3,266 6.2 -11.3°
Reaches altitude 10° 05:23:58 10° 165° (SSE) 2,346 5.5 -10.8°
Maximum altitude 05:29:09 88° 76° (ENE) 805 2.6 -9.9°
Drops below altitude 10° 05:34:28 10° 348° (NNW) 2,404 4.8 -8.9°
Sets 05:36:51 0° 348° (NNW) 3,352 5.5 -8.5°
